Regional Weather Roundup
Issued by NWS Wakefield, VA

Home | Current Version | Previous Version | Text Only | Print | Product List | Glossary On
Versions: 1 2 3 4 5 6 7 8 9 10 11 12 13 14 15 16 17 18 19 20 21 22 23 24 25 26 27 28 29 30 31 32 33 34 35 36 37 38 39 40 41 42 43 44 45 46 47 48 49 50
306
ASUS41 KAKQ 190515
RWRAKQ

REGIONAL WEATHER ROUNDUP
NATIONAL WEATHER SERVICE WAKEFIELD VA
1200 AM EST THU JAN 19 2017

Note: "fair" indicates few or no clouds below 12,000 feet with no
significant weather and/or obstructions to visibility. * = Denotes
station may not report precipitation (e.g., rain,snow,etc.),
thunder or fog.

VAZ042-051-052>054-056-190600-
NORTHERN VIRGINIA

CITY           SKY/WX    TMP DP  RH WIND       PRES   REMARKS
WASH NATIONAL  MOCLDY    48  36  63 NW9       30.09R
DULLES         PTCLDY    42  34  73 W5        30.09R
FORT BELVOIR   CLOUDY    44  34  67 W5        30.09R
QUANTICO       PTCLDY    45  36  70 N9        30.10R
FREDERICKSBRG* CLEAR     43  37  78 NW6       30.09R
STAFFORD*      CLEAR     40  35  81 N6        30.13R
WARRENTON      PTCLDY    42  32  68 N5        30.09R
CULPEPER*      CLOUDY    36  34  90 CALM      30.10S
MANASSAS*      NOT AVBL
LEESBURG*      PTCLDY    43  37  81 MISG      30.10R
WINCHESTER     CLOUDY    41  34  75 NW6       30.08F
FRONT ROYAL*   CLOUDY    43  36  75 CALM      30.07F
LURAY*         FAIR      36  36 100 CALM      30.07F
$$

VAZ048-049-060>072-079>083-190600-
CENTRAL AND SOUTH CENTRAL VIRGINIA

CITY           SKY/WX    TMP DP  RH WIND       PRES   REMARKS
RICHMOND       CLOUDY    43  36  76 N5        30.07R
CHESTERFIELD*  FAIR      45  25  45 NW5       30.09R
PETERSBURG*    CLOUDY    39  36  87 CALM      30.08S
HANOVER        CLOUDY    42  34  73 NW3       30.10R
TAPPAHANNOCK*  CLOUDY    45  29  55 N5        30.07S
QUINTON*       FAIR      44  37  77 NW5       30.07R
CHARLOTTSVILLE CLOUDY    43  35  73 CALM      30.08S
GORDONSVILLE*  FAIR      35  34  96 CALM      30.08F
ORANGE*          N/A     36  36 100 CALM      30.11S
LOUISA*        CLOUDY    37  36  93 CALM      30.08R
BUMPASS*       FAIR      40  36  83 N3        30.10R
FARMVILLE*     CLOUDY    44  37  77 NE6       30.07F
CREWE*         FAIR      37  37 100 CALM      30.08S
FORT PICKETT*  FAIR      41  34  75 W7        30.08S
CHASE CITY*    FAIR      43  36  74 CALM      30.07S
CLARKSVILLE*   FAIR      45  36  70 N5        30.07S
SOUTH HILL*    CLOUDY    40  36  86 CALM      30.13S
LAWRENCEVILLE* FAIR      41  37  85 CALM      30.08R
EMPORIA*       CLOUDY    36  34  93 CALM      30.09S
$$

VAZ088>098-190600-
SOUTHEAST VIRGINIA

CITY           SKY/WX    TMP DP  RH WIND       PRES   REMARKS
NORFOLK        CLEAR     46  40  79 CALM      30.04S
VIRGINIA BEACH CLEAR     39  36  89 CALM      30.04R
NORFOLK NAVAL  CLEAR     43  39  86 N3        30.06S
WEST POINT*    CLEAR     37  35  89 CALM      30.09R
SALUDA*        FAIR      42  39  89 NW3       30.06R
NEWPORT NEWS   PTCLDY    36  35  96 CALM      30.05S
LANGLEY AFB    CLEAR     39  38  99 CALM      30.05R
FORT EUSTIS    CLOUDY    40  37  90 CALM      30.04R
WILLIAMSBURG*  CLOUDY    45  39  81 CALM      30.08R
HR EXEC AP*    MOCLDY    34  30  86 W5        30.05R VSB 1
FRANKLIN*      CLOUDY    37  37  97 CALM      30.07R
US460-WAKEFLD  CLOUDY    38  37  97 CALM      30.07R
$$

VAZ020-022-025-037-045-190600-
WEST CENTRAL AND SOUTHWEST VIRGINIA

CITY           SKY/WX    TMP DP  RH WIND       PRES   REMARKS
STAUNTON*      PTCLDY    30  29  94 CALM      30.10F
WAYNESBORO*    FAIR      39  33  80 SW3       30.08F
HOT SPRINGS VA FOG       34  34 100 W17       30.02F VSB 1/4 WCI  23
LYNCHBURG      CLOUDY    37  34  89 NW3       30.08F
DANVILLE       PTCLDY    44  37  76 N7        30.08R
SOUTH BOSTON*  FAIR      45  36  70 N3        30.07S
MARTINSVILLE   CLOUDY    42  35  74 CALM      30.11S
ROANOKE        CLOUDY    42  36  79 NW6       30.12S
BLACKSBURG     CLOUDY    40  37  89 W5        30.13F
DUBLIN*        CLOUDY    39  35  87 CALM      30.12S
MARION*        CLOUDY    37  37  97 W10       30.12F
HILLSVILLE*    CLOUDY    38  36  91 CALM      30.07F
RICHLANDS*     FAIR     N/A N/A N/A CALM      30.10F
WISE*          PTCLDY    36  36 100 CALM      30.11F
ABINGDON*      CLOUDY    40  38  92 CALM      30.11F
$$

MDZ021>025-VAZ099-100-190600-
SOUTHERN MARYLAND AND THE DELMARVA PENINSULA

CITY           SKY/WX    TMP DP  RH WIND       PRES   REMARKS
PATUXENT RIVER CLOUDY    46  38  73 NW3       30.06S
BAY BRIDGE APT CLOUDY    46  37  71 NW7       30.07R
LEONARDTOWN    CLOUDY    46  36  66 NW5       30.08R
DOVER          CLOUDY    45  45 100 CALM      30.03S
GEORGETOWN     CLOUDY    46  41  82 CALM      30.04S
EASTON         CLOUDY    48  37  66 N3        30.08F
CAMBRIDGE      CLOUDY    45  37  76 CALM      30.05S
SALISBURY      CLOUDY    47  41  80 N5        30.03F
OCEAN CITY     NOT AVBL
WALLOPS ISLAND CLOUDY    48  42  80 N3        30.04S
ACCOMACK*      CLOUDY    45  43  95 N3        30.03F
$$

NCZ012>017-030>032-190600-
NORTH CENTRAL AND EASTERN NORTH CAROLINA

CITY           SKY/WX    TMP DP  RH WIND       PRES   REMARKS
ROANOKE RAPIDS FAIR      43  37  81 CALM      30.07S
RALEIGH        CLOUDY    47  35  63 CALM      30.07R
ELIZABETH CITY CLEAR     43  40  89 CALM      30.05R
AHOSKIE*         N/A     40  39  98 CALM      30.06F FOG
EDENTON*       CLEAR     43  41  92 CALM      30.07R
CURRITUCK*     CLEAR     41  41 100 CALM      30.06R
KILL DEVIL HLS NOT AVBL
MANTEO         CLEAR     44  44  99 N5        30.04S
CAPE HATTERAS  CLEAR     49  45  86 VRB3      30.03F
TARBORO*       NOT AVBL
GOLDSBORO      CLOUDY    46  41  82 CALM      30.04R
WASHINGTON     PTCLDY    41  40  97 CALM        N/A
GREENVILLE     CLEAR     45  45 100 CALM      30.08R
NEW BERN       PTCLDY    41  40  96 CALM      30.06F
WILMINGTON     CLEAR     50  46  86 E6        30.05F
$$

VAZ048-190600-
ELSEWHERE

CITY           SKY/WX    TMP DP  RH WIND       PRES   REMARKS
HARRISBURG PA  CLOUDY    43  36  76 NW8       30.05S
BALTIMORE      CLOUDY    46  37  71 W10       30.07R
ANNAPOLIS      CLOUDY    48  36  63 NW6       30.06S
ANDREWS AFB    CLOUDY    46  35  65 NW9       30.07R
PHILADELPHIA   CLOUDY    45  38  76 NW3       30.04S
HENDERSON NC   CLOUDY    43  33  68 N3        30.06S
GREENSBORO     CLOUDY    46  37  71 N5        30.07R
ROCKY MOUNT    CLOUDY    42  38  85 CALM      30.06S
$$

VAZ100-190600-
MARINE

STATION/POSITION TIME  TEMP    WIND        PRES    WAVE   SWELL
                       AIR SEA DIR/SP/G            HT/PER HT/PER
                 (UTC) (F)     (DEG/KT/KT) (MB)    (FT/S) (FT/S)
CAPE MAY NJ      0448   41 41   CALM  /  2 1016.6S
LEWES DE         0448   43 42  320/  3/  4 1016.8F
OCEAN-CITY-INLET 0448   44 43   20/  4/  5 1017.3F
WACHAPREAGUE VA  0448   47 48   50/  2/  3 1016.9F
THOMAS POINT MD  0500   47 39  290/ 11/ 12   N/A
GOOSES REEF MD   0450   44     310/  6/  6 1018.5F
COVE POINT MD    0448   44     350/ 11/ 12 1018.4S
SOLOMONS ISLAND  0448   47 42  320/  5/  6   N/A
BISHOPS HEAD MD  0448   47 45  300/  6/  6 1017.7S
PINEY POINT MD   0448          340/  8/  8   N/A
POTOMAC MD       0450   44      20/  6/  8 1016.7F
CAMBRIDGE MD     0448   45 40  320/  4/  5 1016.7F
LEWISETTA VA     0448   45 44  340/  6/  8 1017.5F
RAPPAHANNOCK LGT 0448          350/ 10/ 10 1017.8R
STINGRAY PT      0450   44     350/  6/  6 1017.8S
YORK RVR RNG VA  0448   45     340/  8/  8 1016.8R
YORKTOWN VA      0448   45 43  330/  7/  8 1017.2S
JAMESTOWN VA     0450   47     310/  4/  6   N/A
DOMINION TERM VA 0448   44     320/  4/  4 1017.5R
KIPTOPEKE VA     0448      43   30/  5/  6   N/A
CHES BAY BRIDGE  0448   43 43  330/  5/  5 1017.1S
CAPE HENRY VA    0448   45      10/  2/  3   N/A
WILLOUBY STN VA  0448   46     350/  3/  4 1018.2S
S CRANEY ISL VA  0448   45     330/  4/  5 1017.3R
CAPE HENRY BUOY  0442      48                N/A     2/ 7
OFFSHORE WE BUOY 0451      49                N/A     3/ 8
64NM E OF VA BCH 0450   51 57   10/ 21/ 27 1015.1F   6/ 6   3/ 7
DUCK PIER NC     0448   46 45  330/  7/  9 1016.8R
44100 DUCK FRF   0435      48                N/A     3/ 5
44056 DUCK FRF   0430      46                N/A     2/ 5
OREGON INLET NC  0442   46 51  320/  5/  6 1016.9S
HATTERAS NC      0448   50 55  330/  9/ 10 1016.6F
DIAMOND SHLS NC  0450   54 75   10/ 16/ 19 1016.5S   5/ 8   3/ 8
CAPE LOOKOUT NC  0400   52      20/ 11/ 13 1017.2S
$$




USA.gov is the U.S. government's official web portal to all federal, state and local government web resources and services.